{"data":{"norad_id":62920,"epoch":"2026-09-21T22:01:23.968992Z","epoch_age_seconds":45775,"freshness":"FRESH","line1":"1 62920U 25027P   26264.91763853  .00040820  00000+0  13181-2 0  9996","line2":"2 62920  43.0021  99.7476 0005659 260.4255  99.5959 15.31433391 91562","mean_motion":15.31433391,"eccentricity":0.0005659,"inclination_deg":43.0021,"raan_deg":99.7476,"arg_perigee_deg":260.4255,"mean_anomaly_deg":99.5959,"bstar":0.0013181,"rev_number":9156,"period_min":94.029554825085,"perigee_km":467.65862877349,"apogee_km":475.41108738246,"semimajor_km":6849.671858078,"source":"CELESTRAK","updated_at":"2026-09-22T09:00:49.709126Z"}}